{"data":{"norad_id":68877,"intl_designator":"2026-095P","name":"KUIPER-00482","alt_names":[],"object_type":"PAYLOAD","status":"ACTIVE","operator":null,"country":"US","launch_date":"2026-04-28","launch_site_code":"AFETR","launch_vehicle":null,"mission":null,"orbit_class":"UNKNOWN","rcs_meters":null,"size_class":null,"mass_kg":null,"dimensions":null,"purposes":[],"wikipedia_slug":null,"has_3d_model":false,"image_url":null,"decayed_at":null,"tle_current":{"epoch":"2026-05-24T23:52:52.382208Z","epoch_age_seconds":69323,"freshness":"FRESH","line1":"1 68877U 26095P   26144.99505072  .00036808  00000+0  95538-3 0  9999","line2":"2 68877  51.8857 354.3551 0002293 182.4525 177.6452 15.38625043  4161","mean_motion":15.38625043,"eccentricity":0.0002293,"inclination_deg":51.8857,"raan_deg":354.3551,"arg_perigee_deg":182.4525,"mean_anomaly_deg":177.6452,"bstar":0.00095538,"rev_number":416,"period_min":93.59005344098,"perigee_km":448.60853512564,"apogee_km":451.73999867264,"semimajor_km":6828.3112668991,"source":"CELESTRAK","updated_at":"2026-05-25T13:38:08.648137Z"}}}